User: anonymous   Login
Location: Chandolas
(44.4033°N, 4.2533°E)
Time: 20:22:57
(UTC+00:00)
Language:

Cosmos 1605 Rocket - Orbit

View from above orbital plane
View from above orbital plane
View from above satellite
View from above satellite

Ground track
Ground track

The orbit data is extracted from the following two-line orbital elements,

1 15360U 84109B   20020.60484670 -.00000017 +00000-0 -32524-4 0  9996
2 15360 082.9377 064.8384 0039944 284.4172 075.2554 13.76769104771684
Epoch (UTC): 20 January 2020 14:30:58
Eccentricity: 0.0039944
inclination: 82.9377°
perigee height: 946 km
apogee height: 1005 km
right ascension of ascending node: 64.8384°
argument of perigee: 284.4172°
revolutions per day: 13.76769104
mean anomaly at epoch: 75.2554°
orbit number at epoch: 77168

The dashed part of the orbit path shows where the satellite is in the earth's shadow,  

DLR